Date String (YYYY-MM-DD hh:mm:ss) UTC,Instrument flags,Ambient pressure (hPa),Sample flow (lpm),Bypass flow (lpm),Sample temperature (°C),Ambient temperature (°C),ASC tube jacket temperature (°C),LED temperature (°C),Box temperature (°C),Sample RH (%),Span deviation,Mass concentration (μg/m³),Mass concentration (μg/m³),Mass concentration (μg/m³)
DateTimeUTC,F1_M11,P_M11,Q1_M11,Q2_M11,T1_M11,T2_M11,T3_M11,T4_M11,T5_M11,U1_M11,ZSPAN_M11,X0_M11,X2_M11,X1_M11
2022-03-03 12:00:00,,0827.7,4.99,0.00,26.6,25.8,00.0,35.7,28.4,09.5,0000.0,0005.29,0001.10,0000.85
2022-03-03 12:01:00,,0827.7,5.00,0.00,26.6,25.8,00.0,35.7,28.4,09.5,0000.0,0005.23,0001.10,0000.87
2022-03-03 12:02:00,,0827.7,5.00,0.00,26.6,25.8,00.0,35.7,28.4,09.6,0000.0,0006.85,0001.13,0000.89
2022-03-03 12:03:00,,0827.7,5.00,0.00,26.6,25.8,00.0,35.7,28.4,09.4,0000.0,0007.13,0001.15,0000.91
2022-03-03 12:04:00,,0827.7,4.99,0.00,26.6,25.8,00.0,35.7,28.4,09.3,0000.0,0006.81,0001.16,0000.93
2022-03-03 12:05:00,,0827.7,5.01,0.00,26.6,25.8,00.0,35.6,28.4,09.3,0000.0,0005.60,0001.22,0000.97
2022-03-03 12:06:00,,0827.7,5.01,0.00,26.6,25.8,00.0,35.6,28.3,09.3,0000.0,0005.27,0001.24,0000.99
2022-03-03 12:07:00,,0827.7,4.99,0.00,26.6,25.8,00.0,35.6,28.3,09.4,0000.0,0005.33,0001.28,0001.02
2022-03-03 12:08:00,,0827.7,4.99,0.00,26.6,25.8,00.0,35.6,28.3,09.3,0000.0,0004.52,0001.27,0001.03
2022-03-03 12:09:00,,0827.6,5.01,0.00,26.6,25.8,00.0,35.6,28.3,09.3,0000.0,0003.94,0001.29,0001.07
2022-03-03 12:10:00,,0827.6,5.01,0.00,26.6,25.8,00.0,35.6,28.3,09.3,0000.0,0004.03,0001.27,0001.08
2022-03-03 12:11:00,,0827.6,5.00,0.00,26.5,25.8,00.0,35.6,28.3,09.3,0000.0,0004.08,0001.30,0001.10
2022-03-03 12:12:00,,0827.7,4.99,0.00,26.5,25.8,00.0,35.6,28.3,09.3,0000.0,0004.20,0001.35,0001.11
2022-03-03 12:13:00,,0827.7,4.99,0.00,26.5,25.8,00.0,35.6,28.3,09.3,0000.0,0002.58,0001.36,0001.12
2022-03-03 12:14:00,,0827.7,5.01,0.00,26.5,25.8,00.0,35.6,28.3,09.3,0000.0,0002.35,0001.36,0001.13
2022-03-03 12:15:00,,0827.7,5.01,0.00,26.5,25.7,00.0,35.6,28.3,09.4,0000.0,0002.43,0001.40,0001.15
2022-03-03 12:16:00,,0827.7,5.00,0.00,26.5,25.7,00.0,35.6,28.3,09.9,0000.0,0002.37,0001.39,0001.15
2022-03-03 12:17:00,,0827.7,4.99,0.00,26.5,25.7,00.0,35.6,28.2,09.9,0000.0,0002.37,0001.39,0001.15
2022-03-03 12:18:00,,0827.7,5.01,0.00,26.5,25.7,00.0,35.6,28.2,09.8,0000.0,0002.68,0001.42,0001.15
2022-03-03 12:19:00,,0827.7,5.01,0.00,26.5,25.7,00.0,35.6,28.2,09.7,0000.0,0003.10,0001.48,0001.17
2022-03-03 12:20:00,,0827.7,5.01,0.00,26.5,25.7,00.0,35.5,28.2,09.8,0000.0,0002.83,0001.50,0001.18
2022-03-03 12:21:00,,0827.7,4.99,0.00,26.4,25.7,00.0,35.5,28.2,09.7,0000.0,0002.74,0001.56,0001.20
2022-03-03 12:22:00,,0827.7,4.99,0.00,26.4,25.6,00.0,35.5,28.2,09.7,0000.0,0003.01,0001.63,0001.24
2022-03-03 12:23:00,,0827.7,5.00,0.00,26.4,25.6,00.0,35.5,28.2,09.7,0000.0,0003.38,0001.65,0001.29
2022-03-03 12:24:00,,0827.7,4.99,0.00,26.4,25.6,00.0,35.5,28.2,09.7,0000.0,0003.40,0001.67,0001.35
2022-03-03 12:25:00,,0827.7,5.01,0.00,26.4,25.6,00.0,35.5,28.2,09.7,0000.0,0003.52,0001.75,0001.41
2022-03-03 12:26:00,,0827.7,5.00,0.00,26.4,25.6,00.0,35.5,28.2,09.6,0000.0,0003.56,0001.80,0001.45
2022-03-03 12:27:00,,0827.7,5.00,0.00,26.4,25.6,00.0,35.5,28.2,09.6,0000.0,0003.74,0001.89,0001.49
2022-03-03 12:28:00,,0827.7,5.01,0.00,26.4,25.6,00.0,35.5,28.2,09.7,0000.0,0003.94,0001.95,0001.53
2022-03-03 12:29:00,,0827.7,4.98,0.00,26.4,25.6,00.0,35.5,28.2,09.6,0000.0,0003.84,0001.99,0001.58
2022-03-03 12:30:00,,0827.7,5.00,0.00,26.4,25.6,00.0,35.5,28.2,09.6,0000.0,0005.42,0002.10,0001.63
2022-03-03 12:31:00,,0827.7,5.00,0.00,26.4,25.6,00.0,35.4,28.2,09.6,0000.0,0006.19,0002.18,0001.66
2022-03-03 12:32:00,,0827.7,5.01,0.00,26.4,25.6,00.0,35.4,28.2,09.8,0000.0,0006.66,0002.22,0001.69
2022-03-03 12:33:00,,0827.7,5.00,0.00,26.4,25.6,00.0,35.4,28.1,09.7,0000.0,0007.36,0002.23,0001.73
2022-03-03 12:34:00,,0827.7,4.98,0.00,26.4,25.6,00.0,35.4,28.1,09.7,0000.0,0007.10,0002.29,0001.75
2022-03-03 12:35:00,,0827.8,5.01,0.00,26.4,25.6,00.0,35.4,28.1,09.9,0000.0,0007.43,0002.39,0001.79
2022-03-03 12:36:00,,0827.7,5.00,0.00,26.3,25.6,00.0,35.4,28.1,10.3,0000.0,0007.55,0002.39,0001.76
2022-03-03 12:37:00,,0827.9,5.01,0.00,26.3,25.6,00.0,35.4,28.1,10.1,0000.0,0007.54,0002.36,0001.73
2022-03-03 12:38:00,,0827.7,5.00,0.00,26.3,25.5,00.0,35.4,28.1,09.9,0000.0,0007.63,0002.34,0001.74
2022-03-03 12:39:00,,0827.7,4.99,0.00,26.3,25.5,00.0,35.4,28.1,09.9,0000.0,0007.96,0002.39,0001.77
2022-03-03 12:40:00,,0827.7,5.00,0.00,26.3,25.5,00.0,35.4,28.1,09.8,0000.0,0008.07,0002.46,0001.81
2022-03-03 12:41:00,,0827.7,5.00,0.00,26.3,25.5,00.0,35.4,28.1,09.8,0000.0,0007.29,0002.48,0001.86
2022-03-03 12:42:00,,0827.7,5.01,0.00,26.3,25.5,00.0,35.4,28.1,09.8,0000.0,0006.29,0002.52,0001.91
2022-03-03 12:43:00,,0827.7,5.00,0.00,26.3,25.5,00.0,35.4,28.1,09.7,0000.0,0006.18,0002.56,0001.98
2022-03-03 12:44:00,,0827.7,4.99,0.00,26.3,25.5,00.0,35.3,28.1,09.7,0000.0,0005.28,0002.60,0002.00
2022-03-03 12:45:00,,0827.7,5.00,0.00,26.3,25.5,00.0,35.3,28.1,09.7,0000.0,0005.68,0002.61,0001.99
2022-03-03 12:46:00,,0827.7,4.99,0.00,26.3,25.5,00.0,35.3,28.1,09.7,0000.0,0006.75,0002.55,0001.97
2022-03-03 12:47:00,,0827.7,5.00,0.00,26.3,25.5,00.0,35.3,28.1,09.7,0000.0,0007.12,0002.53,0002.00
2022-03-03 12:48:00,,0827.7,5.00,0.00,26.3,25.5,00.0,35.3,28.1,09.7,0000.0,0007.10,0002.53,0002.01
2022-03-03 12:49:00,,0827.7,4.99,0.00,26.3,25.6,00.0,35.3,28.1,09.7,0000.0,0007.49,0002.51,0002.00
2022-03-03 12:50:00,,0827.7,4.99,0.00,26.3,25.5,00.0,35.3,28.1,09.9,0000.0,0007.11,0002.47,0002.00
2022-03-03 12:51:00,,0827.7,5.01,0.00,26.3,25.5,00.0,35.3,28.1,10.0,0000.0,0007.27,0002.40,0001.94
2022-03-03 12:52:00,,0827.7,5.01,0.00,26.3,25.5,00.0,35.3,28.0,09.8,0000.0,0007.40,0002.30,0001.88
2022-03-03 12:53:00,,0827.7,5.00,0.00,26.3,25.5,00.0,35.3,28.0,09.6,0000.0,0007.21,0002.16,0001.80
2022-03-03 12:54:00,,0827.7,5.00,0.00,26.3,25.5,00.0,35.3,28.0,09.5,0000.0,0007.28,0002.06,0001.71
2022-03-03 12:55:00,,0827.7,4.99,0.00,26.3,25.5,00.0,35.3,28.1,09.5,0000.0,0007.15,0002.00,0001.65
2022-03-03 12:56:00,,0827.8,5.01,0.00,26.3,25.5,00.0,35.3,28.0,09.6,0000.0,0007.05,0001.99,0001.65
2022-03-03 12:57:00,,0827.7,5.00,0.00,26.3,25.5,00.0,35.3,28.1,09.6,0000.0,0006.03,0001.98,0001.66
2022-03-03 12:58:00,,0827.7,5.00,0.00,26.3,25.5,00.0,35.3,28.1,09.6,0000.0,0004.86,0002.00,0001.65
2022-03-03 12:59:00,,0827.7,5.00,0.00,26.2,25.5,00.0,35.3,28.0,09.6,0000.0,0005.86,0002.01,0001.67
